Location: Fiennes
(50.8274°N, 1.8253°E)
Time: 02:46:11
(UTC+00:00)

Cosmos 1271 Rocket - Pass Details

Date: 15 May 2026
Orbit: 421 x 447 km, 81.2° (Epoch: 8 June)

Event Time Altitude Azimuth Distance (km) Brightness Sun altitude
Exits shadow 22:06:23 22° 95° (E) 1,015 3.9 -16.6°
Maximum altitude 22:06:29 22° 92° (E) 1,015 3.9 -16.6°
Drops below altitude 10° 22:09:10 10° 39° (NE) 1,555 5.5 -16.8°
Sets 22:11:30 0° 24° (NNE) 2,424 6.7 -16.9°
